Погода Им. Полины Осипенко

Погода Им. Полины Осипенко : погода сейчас, прогноз погоды и архив. Всё, что Вы хотите узнать о погоде Им. Полины Осипенко!

Хотите узнать прогноз погоды Им. Полины Осипенко? Тогда Вам сюда: Погода Им. Полины Осипенко

Поиск расширенной информации на нашем сайте:

Другие новости

Новости СМИ2

Главная страница сайта

Новости сайта

03.07.2017

Напоминаем, что на нашем специализированном сайте Метеоцентр.Азия вы можете получить высокодетализированные автоматические прогнозы погоды по пунктам России, СНГ и мира в авиационном формате (включающие направление и скорость ветра, видимость, явления погоды, количество и форму облачности, нижнюю и верхнюю границу облачности).


Погода Им. Полины Осипенко - сегодня

Время (UTC), дата Ветер
(°,м/с) 
Видим.   Явления Облачность Т
(°С)
Тd
(°С)
f(%) Тe
(°С)
Pmin
(гПа)
dP
(гПа)
Po
(мм)
O2
(г/м3)
Тmin Tmax R s Состояние
почвы
18 19.11.17 110 (В) 20000 м    ясно 
-25.9 -28.7 77 -26  1008.4  -1.4  749  335           
21 19.11.17 140 (ЮВ) 20000 м    3/0 средняя 
[Ac lent]
-24.7 -27.5 77 -28  1007.6  -0.8  748  333  -26.4      равномерный
сухой снег
100% 
00 20.11.17 150 (ЮВ) 20000 м    10/0 верхняя 
[Cs]
-21.7 -24.9 75 -25  1006.7  -0.8  748  329           
03 20.11.17 170 (Ю) 20000 м    4/0 верхняя 
[Ci fib]
-17.6 -24.4 55 -22  1004.7  -1.8  746  323           
06 20.11.17 160 (Ю) 20000 м    1/0 верхняя 
[Ci fib]
-16.2 -24.4 49 -21  1004.5  -0.2  746  321           
09 20.11.17 180 (Ю) 20000 м    ясно 
-19.8 -24.3 67 -24  1006  1.3  747  326    -15.9       
12 20.11.17 180 (Ю) 20000 м    ясно 
-22.5 -27.7 63 -25  1007.1  748  330           
15 20.11.17 130 (ЮВ) 20000 м    ясно 
-24.1 -29.4 61 -25  1008.1  749  333           
18 20.11.17 100 (В) 20000 м    ясно 
-27 -30.1 75 -28  1010.1  1.8  750  337           
21 20.11.17 090 (В) 20000 м    ясно 
-27.6 -31 73 -28  1010.8  0.7  750  338  -28.3      равномерный
сухой снег
100% 
00 21.11.17 160 (Ю) 20000 м    3/0 средняя, верхняя 
[Ac lent|Ci fib]
-20.8 -26.7 59 -24  1011  0.4  751  329           
03 21.11.17 160 (Ю) 20000 м    1/0 верхняя 
[Ci fib]
-15.9 -23.8 51 -20  1010.6  -0.3  751  323           
06 21.11.17 160 (Ю) 20000 м    ясно 
-14.3 -21.6 54 -16  1010.4  -0.1  751  321           
09 21.11.17 170 (Ю) 20000 м    ясно 
-15.7 -20.8 65 -21  1010.7  0.3  751  323    -14.1       
12 21.11.17 150 (ЮВ) 20000 м    ясно 
-17.5 -21 74 -18  1011.3  0.5  751  325           
15 21.11.17 130 (ЮВ) 20000 м    ясно 
-18.4 -20.8 81 -21  1011.7  0.3  751  326           
18 21.11.17 120 (ЮВ) 20000 м    4/0 верхняя 
[Ci fib]
-17.3 -19.8 81 -17  1010.8  -0.8  751  325           
21 21.11.17 050 (СВ) 20000 м  слаб. снег  10/0 средняя, верхняя 
[As trans|Cs]
-20.9 -23.2 82 -21  1010  -0.9  750  329  -20.9    0.0  равномерный
сухой снег
100% 
00 22.11.17 320 (СЗ) 10 км  слаб. снег  10/0 средняя, верхняя 
[As op|Cs]
-20.3 -22.7 81 -21  1008.7  -1.3  749  328  -21.8         
03 22.11.17 340 (С) 10 км  слаб. снег  10/0 средняя 
[As op]
-12.9 -16.9 72 -13  1006  -2.3  747  317           
06 22.11.17 330 (СЗ) 10 км  слаб. снег  10/0 средняя, верхняя 
[As op|Cs]
-13.1 -16.4 76 -15  1005.7  -0.3  747  318           
09 22.11.17 330 (СЗ) 10 км  слаб. снег  10/0 средняя 
[As op]
-14.3 -16.7 82 -16  1007.1  1.4  748  320    -11.7  0.0     
12 22.11.17 330 (СЗ) 20000 м  слаб. снег  10/0 средняя 
[As op]
-16.6 -18.9 82 -19  1007.8  0.6  749  323           
15 22.11.17 330 (СЗ) 20000 м  слаб. снег  10/0 средняя 
[As op]
-17.3 -19.7 82 -20  1008.9  749  324           
18 22.11.17 330 (СЗ) 20000 м  слаб. снег  10/0 средняя 
[As op]
-17.2 -20 79 -21  1009.8  0.8  750  324           
Время (UTC), дата Ветер
(°,м/с) 
Видим.   Явления Облачность Т
(°С)
Тd
(°С)
f(%) Тe
(°С)
Pmin
(гПа)
dP
(гПа)
Po
(мм)
O2
(г/м3)
Тmin Tmax R s Состояние
почвы

Для получения пояснительной информации подведите курсор к названию столбца.

ПОГОДА Им. Полины Осипенко - архив

Всё, что Вы хотите узнать о погоде Им. Полины Осипенко - удобно и подробно!

Выберите нужную дату (начиная с 1 января 2015* года) и нажмите кнопку "Найти".
Будут отображены архивные сводки погоды по пункту Им. Полины Осипенко, начиная с указанной даты.


Отображать данные в формате CSV (для использования в таблицах Excel)


Внимание! Наш архив погоды предназначен исключительно для личного некоммерческого использования в познавательных целях. Если Вам необходимы официальные справки о состоянии погоды (для производственных, юридических, коммерческих и т.п. целей), обращайтесь в органы Росгидромета.

*Примечание: данная дата относится к архиву по метеостанциям СССР (Россия, СНГ, Балтия).
Архив по метеостанциям Зарубежной Европы и Азии (кроме Китая) хранится 10 дней, по другим регионам земного шара (Китай, Африка, Америка, Австралия, Океания) - 1 день.

Им. Полины Осипенко - район местоположения метеостанции


Название, широта, долгота, высота метеостанции:
Им. Полины Осипенко 52.4°ш. 136.5°д. 73 м над ур. моря [Российская Федерация]

Дополнительная информация

В oтличие oт бoльшинства пoгoдных сайтoв мы публикуем пoдрoбную метеoинфoрмацию в детальнoм прoфессиoнальнoм фoрмате.

Характеристики температуры и влажнoсти вoздуха измеряются на высoте 2 м в тени вдали oт зданий и деревьев.
Скoрoсть ветра измеряется на высoте 10 м (на урoвне рoста челoвека скoрoсть ветра ниже в 1.5-2 раза). Если метеoстанция нахoдится в гoрoде или в лесу, тo скoрoсть ветра занижена на 2-4 м/с пo сравнению с oткрытым местoм. Скoрoсть ветра над акватoриями крупных рек и oзёр, а также на вершинах хoлмoв на 2-5 м/с выше, чем в oбычных услoвиях.
Атмoсфернoе давление в разных тoчках местнoсти мoжет значительнo oтличаться oт давления на метеoстанции, в зависимoсти oт услoвий рельефа (при пoдъёме на 10 м давление пoнижается примернo на 1 мм рт.ст.).